Regional Weather Roundup
Issued by NWS

Home | Current Version | Previous Version | Graphics & Text | Print | Product List | Glossary On
Versions: 1 2 3 4 5 6 7 8 9 10 11 12 13 14 15 16 17 18 19 20 21 22 23 24 25 26 27 28 29 30 31 32 33 34 35 36 37 38 39 40 41 42 43 44 45 46 47 48 49 50
556
ASUS43 KMPX 051001
RWRMN
WEATHER ROUNDUP FOR MINNESOTA
NATIONAL WEATHER SERVICE TWIN CITIES/CHANHASSEN MN
400 AM CST MON DEC 05 2016


NOTE: "FAIR" INDICATES FEW OR NO CLOUDS BELOW 12,000 FEET WITH NO
SIGNIFICANT WEATHER AND/OR OBSTRUCTIONS TO VISIBILITY. N/A MEANS
CURRENT SKY AND/OR WEATHER CONDITIONS ARE NOT AVAILABLE.

MNZ060>063-068>070-051100-
   Twin Cities Metro

CITY           SKY/WX    TMP DP  RH WIND       PRES   REMARKS
TWIN CITIES    PTCLDY    30  27  88 S3        29.80F FOG
ST PAUL        PTCLDY    27  27 100 S5        29.81F WCI  22
CRYSTAL        CLEAR     27  25  92 CALM      29.78F
BLAINE         CLEAR     28  28 100 CALM      29.78F
LAKEVILLE      FOG       23  23 100 CALM      29.80F VSB 3/4
EDEN PRAIRIE   PTCLDY    29  27  92 S5        29.78F WCI  24
SOUTH ST PAUL  PTCLDY    27  26  99 CALM      29.80F FOG
LAKE ELMO      FOG       28  28 100 CALM      29.81F VSB 1/4
$$
MNZ001>005-007-008-013>017-022>024-027-028-051100-
   Northwest Minnesota

CITY           SKY/WX    TMP DP  RH WIND       PRES   REMARKS
BEMIDJI        CLOUDY    28  26  93 W5        29.69F WCI  22
HALLOCK        CLOUDY    30  27  86 SW6       29.70R WCI  24
ROSEAU         CLOUDY    30  27  86 W7        29.68R WCI  23
WARROAD        CLOUDY    30  27  86 SW7       29.67R WCI  23
THIEF RVR FALL CLOUDY    27  25  92 SW7       29.72R WCI  19
CROOKSTON      CLOUDY    27  27 100 W5        29.73S WCI  21
FOSSTON        CLOUDY    27  25  93 W3        29.71S
DETROIT LAKES  CLEAR     25  25 100 CALM      29.71S FOG
MOORHEAD       CLEAR     25  21  86 SE3       29.71F
PARK RAPIDS    CLOUDY    28  23  81 CALM      29.70S
$$
MNZ006-009>011-018-025>026-051100-
   North Central Minnesota

CITY           SKY/WX    TMP DP  RH WIND       PRES   REMARKS
BAUDETTE       CLOUDY    30  26  85 W8        29.66R WCI  22
FLAG ISLAND    CLOUDY    30  28  93 W7        29.63S WCI  23
INTL FALLS     CLOUDY    30  27  88 W8        29.66S WCI  22
WASKISH        CLOUDY    28  27  93 W9        29.69S WCI  20
BIG FORK       CLOUDY    28  27  93 SW9       29.70S WCI  20
LONGVILLE      CLOUDY    30  27  86 CALM      29.71F
GRAND RAPIDS   CLOUDY    30  27  88 W8        29.73S WCI  22
CRANE LAKE     CLOUDY    28  27  93 CALM      29.69S
ORR            CLOUDY    28  27  93 CALM      29.66R
COOK           CLOUDY    28  27  93 SW6       29.69S WCI  22
$$
MNZ012-019>021-037-051100-
   Northeast Minnesota

CITY           SKY/WX    TMP DP  RH WIND       PRES   REMARKS
DULUTH         CLOUDY    31  28  89 W10       29.71S WCI  22
ELY            CLOUDY    28  27  93 W7        29.67S WCI  21
HIBBING        CLOUDY    29  26  89 VRB5      29.70S WCI  24
EVELETH        CLOUDY    32  30  91 W7        29.71S WCI  26
DULUTH HARBOR  CLOUDY    36  30  80 SW7       29.76S
TWO HARBORS    PTCLDY    34  28  80 SW6       29.70R WCI  29
SILVER BAY     CLOUDY    32  30  93 CALM      29.68S
GRAND MARAIS     N/A     35  33  92 W8        29.68R WCI  29
G MARAIS ARPRT CLOUDY    28  25  86 W5        29.63R WCI  23
$$
MNZ029>031-032-039>041-046>048-054>057-064-051100-
   West Central Minnesota

CITY           SKY/WX    TMP DP  RH WIND       PRES   REMARKS
FERGUS FALLS   CLEAR     25  25 100 S7        29.75S WCI  17
WHEATON        CLEAR    N/A N/A N/A E8        29.72F
MORRIS         CLEAR     27  27 100 SE7       29.71S WCI  19
ALEXANDRIA     CLEAR     27  26  96 CALM      29.72F
ELBOW LAKE     FAIR      27  26  98 CALM      29.72F
WADENA         FOG       19  19 100 CALM      29.71F VSB 1/2
GLENWOOD       CLEAR     27  25  93 SE5       29.73S WCI  21
APPLETON       PTCLDY    25  23  93 E5        29.71F WCI  19
BENSON         CLEAR     28  27  93 SE3       29.73S
ORTONVILLE     CLOUDY    28  27  93 CALM      29.69F
MADISON        PTCLDY    28  28 100 E6        29.70F WCI  22
WILLMAR        FAIR      28  28 100 E5        29.75F WCI  23
$$
MNZ033>034-036-042>043-049>051-058-059-051100-
   Central Minnesota

CITY           SKY/WX    TMP DP  RH WIND       PRES   REMARKS
ST CLOUD       CLEAR     26  26 100 SE3       29.76F
PAYNESVILLE    CLEAR     29  30 100 CALM      29.75F
AITKIN         CLOUDY    34  27  75 SW5       29.72S WCI  30
PINE RIVER     CLOUDY    28  27  93 CALM      29.76S
BRAINERD       CLEAR     25  24  96 CALM      29.74F FOG
STAPLES        CLEAR     21  21 100 CALM      29.72F FOG
LONG PRAIRIE   FAIR      23  23 100 S5        29.74S WCI  17
LITTLE FALLS   CLEAR     27  23  86 CALM      29.75F
LITCHFIELD     CLEAR     28  28 100 CALM      29.76F
BUFFALO        CLEAR     29  28  94 S3        29.79S
MAPLE LAKE     CLEAR     28  28  99 CALM      29.78S
$$
MNZ037-044-045-052-053-051100-
   East Central Minnesota

CITY           SKY/WX    TMP DP  RH WIND       PRES   REMARKS
PRINCETON      CLEAR     27  27 100 CALM      29.77F FOG
MORA           CLEAR     28  27  93 SW3       29.78F
CAMBRIDGE      CLEAR     28  27  93 S5        29.77S FOG     WCI  23
RUSH CITY      CLEAR     27  27 100 S6        29.78S WCI  20
MOOSE LAKE     CLOUDY    32  30  93 SW5       29.73S WCI  27
HINCKLEY       FAIR      28  28 100 SW3       29.76F FOG
CLOQUET        CLOUDY    32  27  80 W7        29.73R WCI  26
MCGREGOR       CLOUDY    32  30  93 W3        29.74S
$$
MNZ071>073-080-081-089-090-097-098-051100-
   Southwest Minnesota

CITY           SKY/WX    TMP DP  RH WIND       PRES   REMARKS
MONTEVIDEO     PTCLDY    27  27 100 SE5       29.73F WCI  21
GRANITE FALLS  PTCLDY    29  28  93 E5        29.73F WCI  24
CANBY          CLOUDY    32  30  92 CALM      29.69F
MARSHALL       CLOUDY    33  29  85 SE8       29.71F WCI  26
REDWOOD FALLS  CLOUDY    31  27  85 SE6       29.74F WCI  25
OLIVIA         PTCLDY    32  30  93 SE6       29.73F WCI  26
PIPESTONE      CLOUDY    34  30  86 SE10      29.68F WCI  26
WINDOM         CLOUDY    34  32  93 CALM      29.74F
WORTHINGTON    CLOUDY    32  30  92 S10       29.73F WCI  24
JACKSON        CLOUDY    32  30  93 S12       29.76F WCI  23
TRACY          CLOUDY    36  32  84 S14       29.71F
SLAYTON        CLOUDY    31  30  96 SE8       29.73F WCI  24
$$
MNZ065>067-074>077-082>085-091>093-051100-
   South Central Minnesota

CITY           SKY/WX    TMP DP  RH WIND       PRES   REMARKS
MANKATO        PTCLDY    31  30  96 SE8       29.79F WCI  23
NEW ULM        CLOUDY    30  30 100 S8        29.76F WCI  23
ST JAMES       CLOUDY    32  30  93 SE7       29.78F WCI  26
FAIRMONT       CLOUDY    31  30  96 S8        29.79F WCI  23
GLENCOE        PTCLDY    31  31 100 CALM      29.77F
FARIBAULT      PTCLDY    28  28 100 SE3       29.81F
OWATONNA       PTCLDY    30  28  93 SE5       29.81S WCI  25
WASECA         PTCLDY    32  30  93 S8        29.82S WCI  25
ALBERT LEA     PTCLDY    36  34  93 S3        29.81F FOG
$$
MNZ078>079-086>088-094>096-051100-
   Southeast Minnesota

CITY           SKY/WX    TMP DP  RH WIND       PRES   REMARKS
ROCHESTER      FOG       29  29 100 S13       29.83F VSB 1/4 WCI  19
RED WING       PTCLDY    27  27 100 CALM      29.82F FOG
STANTON        PTCLDY    32  29  90 S3        29.80F
DODGE CENTER   PTCLDY    27  27 100 S7        29.81F WCI  19
WINONA         CLOUDY    34  32  93 CALM      29.87S
PRESTON        FOG       31  30  96 S10       29.86R VSB 1/4 WCI  22
$$
ABBREVIATIONS USED IN REMARKS
   TC - TEMPERATURES IN CELSIUS
  WCI - WIND CHILL INDEX
   HX - HEAT INDEX
  VSB - VISIBILITY
$$




USA.gov is the U.S. government's official web portal to all federal, state and local government web resources and services.